Location: Casilda
(33.0440°S, 61.1680°W)
Time: 17:25:14
(UTC-03:00)

ISS - Pass Details

Date: 21 March 2023
Orbit: 413 x 421 km, 51.6° (Epoch: 30 March)

Event Time Altitude Azimuth Distance (km) Brightness Sun altitude
Exits shadow 05:17:16 22° 42° (NE) 984 -1.7 -23.8°
Maximum altitude 05:17:36 22° 52° (NE) 975 -1.6 -23.8°
Drops below altitude 10° 05:20:19 10° 104° (ESE) 1,521 0.2 -23.2°
Sets 05:22:44 0° 120° (ESE) 2,397 1.4 -22.7°
